Time,TemperatureF,DewpointF,PressureIn,WindDirection,WindDirectionDegrees,WindSpeedMPH,WindSpeedGustMPH,Humidity,HourlyPrecipIn,Conditions,Clouds,dailyrainin,SoftwareType,DateUTC
2013-04-09 00:00:00,53.1,48.4,30.02,SSE,162,0.0,0.0,84,0.00,,---,0.00,VWS V12.07,2013-04-09 04:00:00,
2013-04-09 00:30:00,53.2,48.5,30.02,SSE,162,0.0,0.0,84,0.00,,---,0.00,VWS V12.07,2013-04-09 04:30:00,
2013-04-09 01:00:00,52.6,48.8,30.02,SSE,162,0.0,1.0,87,0.00,,---,0.00,VWS V12.07,2013-04-09 05:00:00,
2013-04-09 01:30:00,52.2,48.8,30.02,SSE,162,0.0,0.0,88,0.00,,---,0.00,VWS V12.07,2013-04-09 05:30:00,
2013-04-09 02:00:00,52.0,48.9,30.01,SSE,162,0.0,0.0,89,0.00,,---,0.00,VWS V12.07,2013-04-09 06:00:00,
2013-04-09 02:30:00,51.4,48.9,30.00,SSE,162,0.0,0.0,91,0.00,,---,0.00,VWS V12.07,2013-04-09 06:30:00,
2013-04-09 03:00:00,50.5,48.3,30.00,SSE,162,0.0,0.0,92,0.00,,---,0.00,VWS V12.07,2013-04-09 07:00:00,
2013-04-09 03:30:00,50.1,48.2,30.01,SSE,162,0.0,0.0,93,0.00,,---,0.00,VWS V12.07,2013-04-09 07:30:00,
2013-04-09 04:00:00,50.5,48.6,30.00,SSE,162,0.0,0.0,93,0.00,,---,0.00,VWS V12.07,2013-04-09 08:00:00,
2013-04-09 04:30:00,51.1,49.4,30.00,SSE,162,0.0,0.0,94,0.00,,---,0.00,VWS V12.07,2013-04-09 08:30:00,
2013-04-09 05:00:00,51.1,49.4,30.02,SSE,162,0.0,0.0,94,0.00,,---,0.00,VWS V12.07,2013-04-09 09:00:00,
2013-04-09 05:30:00,51.9,49.9,30.01,SSE,162,0.0,0.0,93,0.00,,---,0.00,VWS V12.07,2013-04-09 09:30:00,
2013-04-09 06:00:00,52.8,51.1,30.03,SSE,162,0.0,0.0,94,0.00,,---,0.00,VWS V12.07,2013-04-09 10:00:00,
2013-04-09 06:30:00,51.7,49.8,30.04,SSE,162,0.0,0.0,93,0.00,,---,0.00,VWS V12.07,2013-04-09 10:30:00,
2013-04-09 07:00:00,50.7,48.8,30.06,SSE,162,0.0,0.0,93,0.00,,---,0.00,VWS V12.07,2013-04-09 11:00:00,
2013-04-09 07:30:00,49.9,48.5,30.09,SSE,162,0.0,0.0,95,0.00,,---,0.00,VWS V12.07,2013-04-09 11:30:00,
2013-04-09 08:00:00,49.6,48.5,30.09,SSE,162,0.0,0.0,96,0.00,,---,0.00,VWS V12.07,2013-04-09 12:00:00,
2013-04-09 08:30:00,50.5,49.7,30.11,SSE,162,0.0,0.0,97,0.00,,---,0.00,VWS V12.07,2013-04-09 12:30:00,
2013-04-09 09:00:00,52.9,52.1,30.10,SSE,163,0.0,0.0,97,0.00,,---,0.00,VWS V12.07,2013-04-09 13:00:00,
2013-04-09 09:30:00,57.6,55.6,30.09,SSE,162,0.0,0.0,93,0.00,,---,0.00,VWS V12.07,2013-04-09 13:30:00,
2013-04-09 10:00:00,63.1,56.5,30.08,SSE,162,0.0,0.0,79,0.00,,---,0.00,VWS V12.07,2013-04-09 14:00:00,
2013-04-09 10:30:00,67.8,55.6,30.09,NW,308,0.0,3.0,65,0.00,,---,0.00,VWS V12.07,2013-04-09 14:30:00,
2013-04-09 11:00:00,71.3,53.8,30.09,SSE,168,0.0,5.0,54,0.00,,---,0.00,VWS V12.07,2013-04-09 15:00:00,
2013-04-09 11:30:00,72.8,54.2,30.09,SE,146,0.0,7.0,52,0.00,,---,0.00,VWS V12.07,2013-04-09 15:30:00,
2013-04-09 12:00:00,74.2,52.7,30.09,South,179,0.0,9.0,47,0.00,,---,0.00,VWS V12.07,2013-04-09 16:00:00,
2013-04-09 12:30:00,75.8,53.6,30.08,SSE,153,4.0,5.0,46,0.00,,---,0.00,VWS V12.07,2013-04-09 16:30:00,
2013-04-09 13:00:00,75.6,54.0,30.09,SSE,148,3.0,11.0,47,0.00,,---,0.00,VWS V12.07,2013-04-09 17:00:00,
2013-04-09 13:30:00,76.3,54.6,30.07,East,94,2.0,6.0,47,0.00,,---,0.00,VWS V12.07,2013-04-09 17:30:00,
2013-04-09 14:00:00,77.7,52.2,30.07,SSE,163,4.0,7.0,41,0.00,,---,0.00,VWS V12.07,2013-04-09 18:00:00,
2013-04-09 14:30:00,76.7,49.9,30.06,SE,146,2.0,5.0,39,0.00,,---,0.00,VWS V12.07,2013-04-09 18:30:00,
2013-04-09 15:00:00,78.5,49.3,30.04,South,186,1.0,6.0,36,0.00,,---,0.00,VWS V12.07,2013-04-09 19:00:00,
2013-04-09 15:30:00,78.5,52.9,30.03,SW,228,0.0,8.0,41,0.00,,---,0.00,VWS V12.07,2013-04-09 19:30:00,
2013-04-09 16:00:00,78.3,52.0,30.02,NNE,26,0.0,4.0,40,0.00,,---,0.00,VWS V12.07,2013-04-09 20:00:00,
2013-04-09 16:30:00,79.4,51.6,30.01,East,93,0.0,3.0,38,0.00,,---,0.00,VWS V12.07,2013-04-09 20:30:00,
2013-04-09 17:00:00,79.0,52.6,30.01,South,178,0.0,4.0,40,0.00,,---,0.00,VWS V12.07,2013-04-09 21:00:00,
2013-04-09 17:30:00,77.9,51.7,30.00,SSE,150,5.0,5.0,40,0.00,,---,0.00,VWS V12.07,2013-04-09 21:30:00,
2013-04-09 18:00:00,75.6,51.5,30.01,South,177,0.0,6.0,43,0.00,,---,0.00,VWS V12.07,2013-04-09 22:00:00,
2013-04-09 18:30:00,75.6,51.5,30.01,SE,134,3.0,4.0,43,0.00,,---,0.00,VWS V12.07,2013-04-09 22:30:00,
2013-04-09 19:00:00,73.7,52.8,30.01,South,178,1.0,4.0,48,0.00,,---,0.00,VWS V12.07,2013-04-09 23:00:00,
2013-04-09 19:30:00,72.8,53.1,30.02,SW,215,1.0,3.0,50,0.00,,---,0.00,VWS V12.07,2013-04-09 23:30:00,
2013-04-09 20:00:00,71.1,53.1,30.01,South,186,0.0,0.0,53,0.00,,---,0.00,VWS V12.07,2013-04-10 00:00:00,
2013-04-09 20:30:00,68.4,52.1,29.98,ESE,115,0.0,1.0,56,0.00,,---,0.00,VWS V12.07,2013-04-10 00:30:00,
2013-04-09 21:00:00,66.1,52.7,30.00,ENE,61,0.0,0.0,62,0.00,,---,0.00,VWS V12.07,2013-04-10 01:00:00,
2013-04-09 21:30:00,64.2,52.2,29.99,South,188,0.0,0.0,65,0.00,,---,0.00,VWS V12.07,2013-04-10 01:30:00,
2013-04-09 22:00:00,62.6,51.9,30.01,South,188,0.0,0.0,68,0.00,,---,0.00,VWS V12.07,2013-04-10 02:00:00,
2013-04-09 22:30:00,61.2,51.7,30.01,South,188,0.0,0.0,71,0.00,,---,0.00,VWS V12.07,2013-04-10 02:30:00,
2013-04-09 23:00:00,60.2,52.3,30.02,South,188,0.0,0.0,75,0.00,,---,0.00,VWS V12.07,2013-04-10 03:00:00,
2013-04-09 23:30:00,58.9,51.7,30.02,South,188,0.0,0.0,77,0.00,,---,0.00,VWS V12.07,2013-04-10 03:30:00,